| time (UTC) | temp F | wind direction | speed knots | gust knots | rain 1hr in | rain 24hr in | rain mn in | humidity % | barometer mb |
| 20260902234027 | 92 | 211 | 0.0 | 0.0 | 0.00 | 0.00 | 0.00 | 45 | 1014.7 |
| 20260902233522 | 93 | 211 | 0.0 | 0.0 | 0.00 | 0.00 | 0.00 | 42 | 1014.7 |
| 20260902233022 | 94 | 211 | 0.0 | 0.0 | 0.00 | 0.00 | 0.00 | 43 | 1014.7 |
| 20260902232525 | 94 | 211 | 0.0 | 0.0 | 0.00 | 0.00 | 0.00 | 42 | 1014.7 |
| 20260902232020 | 95 | 211 | 0.0 | 0.0 | 0.00 | 0.00 | 0.00 | 39 | 1014.7 |
| 20260902231520 | 95 | 211 | 0.0 | 0.0 | 0.00 | 0.00 | 0.00 | 36 | 1014.7 |
| 20260902231020 | 95 | 211 | 0.0 | 0.0 | 0.00 | 0.00 | 0.00 | 36 | 1014.8 |
| 20260902230519 | 96 | 211 | 0.0 | 0.0 | 0.00 | 0.00 | 0.00 | 35 | 1014.8 |
| 20260902230018 | 97 | 211 | 0.0 | 0.0 | 0.00 | 0.00 | 0.00 | 34 | 1014.9 |
| 20260902225519 | 97 | 211 | 0.0 | 0.0 | 0.00 | 0.00 | 0.00 | 34 | 1014.9 |
| 20260902225021 | 96 | 211 | 0.0 | 0.0 | 0.00 | 0.00 | 0.00 | 34 | 1014.9 |
| 20260902224519 | 96 | 211 | 0.0 | 0.0 | 0.00 | 0.00 | 0.00 | 34 | 1014.9 |
| 20260902224020 | 97 | 211 | 0.0 | 0.0 | 0.00 | 0.00 | 0.00 | 33 | 1014.9 |
| 20260902223516 | 97 | 211 | 0.0 | 0.0 | 0.00 | 0.00 | 0.00 | 33 | 1015.0 |
| 20260902223017 | 96 | 211 | 0.0 | 0.0 | 0.00 | 0.00 | 0.00 | 34 | 1015.0 |
| 20260902222518 | 96 | 211 | 0.0 | 0.0 | 0.00 | 0.00 | 0.00 | 35 | 1015.0 |
| 20260902222017 | 96 | 211 | 0.0 | 0.9 | 0.00 | 0.00 | 0.00 | 35 | 1015.1 |
| 20260902221532 | 96 | 211 | 0.0 | 0.9 | 0.00 | 0.00 | 0.00 | 34 | 1015.1 |
| 20260902221017 | 97 | 223 | 0.0 | 0.0 | 0.00 | 0.00 | 0.00 | 34 | 1015.2 |
| 20260902220515 | 96 | 224 | 0.0 | 0.0 | 0.00 | 0.00 | 0.00 | 34 | 1015.2 |
| 20260902220013 | 95 | 228 | 0.0 | 0.0 | 0.00 | 0.00 | 0.00 | 35 | 1015.2 |
| 20260902215516 | 95 | 261 | 0.0 | 0.0 | 0.00 | 0.00 | 0.00 | 36 | 1015.2 |
| 20260902215013 | 95 | 273 | 0.0 | 0.0 | 0.00 | 0.00 | 0.00 | 35 | 1015.2 |
| 20260902214514 | 95 | 268 | 0.0 | 0.0 | 0.00 | 0.00 | 0.00 | 34 | 1015.2 |
| 20260902214014 | 95 | 181 | 0.0 | 0.0 | 0.00 | 0.00 | 0.00 | 34 | 1015.2 |
| 20260902213514 | 96 | 171 | 0.0 | 0.0 | 0.00 | 0.00 | 0.00 | 33 | 1015.2 |
| 20260902213013 | 96 | 214 | 0.0 | 0.9 | 0.00 | 0.00 | 0.00 | 34 | 1015.2 |
| 20260902212511 | 96 | 211 | 0.0 | 0.9 | 0.00 | 0.00 | 0.00 | 34 | 1015.3 |
| 20260902212011 | 96 | 205 | 0.0 | 0.0 | 0.00 | 0.00 | 0.00 | 33 | 1015.3 |
| 20260902211511 | 97 | 271 | 0.0 | 0.0 | 0.00 | 0.00 | 0.00 | 33 | 1015.4 |
| 20260902211011 | 98 | 240 | 0.0 | 0.0 | 0.00 | 0.00 | 0.00 | 32 | 1015.4 |
| 20260902210513 | 98 | 269 | 0.0 | 0.0 | 0.00 | 0.00 | 0.00 | 32 | 1015.4 |
| 20260902210010 | 97 | 184 | 0.0 | 0.0 | 0.00 | 0.00 | 0.00 | 33 | 1015.4 |
| 20260902205509 | 96 | 209 | 0.0 | 0.9 | 0.00 | 0.00 | 0.00 | 33 | 1015.5 |
| 20260902205009 | 97 | 225 | 0.0 | 0.9 | 0.00 | 0.00 | 0.00 | 32 | 1015.5 |
| 20260902204510 | 96 | 335 | 0.0 | 0.0 | 0.00 | 0.00 | 0.00 | 35 | 1015.4 |
| 20260902204007 | 95 | 265 | 0.0 | 0.0 | 0.00 | 0.00 | 0.00 | 35 | 1015.5 |
| 20260902203506 | 95 | 289 | 0.0 | 0.0 | 0.00 | 0.00 | 0.00 | 36 | 1015.5 |
| 20260902203007 | 95 | 284 | 0.0 | 0.0 | 0.00 | 0.00 | 0.00 | 34 | 1015.6 |
| 20260902202505 | 97 | 276 | 0.0 | 0.0 | 0.00 | 0.00 | 0.00 | 34 | 1015.7 |
| 20260902202004 | 96 | 314 | 0.0 | 0.0 | 0.00 | 0.00 | 0.00 | 35 | 1015.8 |
| 20260902201505 | 96 | 289 | 0.0 | 0.0 | 0.00 | 0.00 | 0.00 | 34 | 1015.8 |
| 20260902201004 | 95 | 219 | 0.0 | 0.0 | 0.00 | 0.00 | 0.00 | 35 | 1015.8 |
| 20260902200504 | 94 | 219 | 0.0 | 0.0 | 0.00 | 0.00 | 0.00 | 35 | 1016.0 |
| 20260902200002 | 94 | 247 | 0.0 | 0.0 | 0.00 | 0.00 | 0.00 | 37 | 1016.1 |
| 20260902195504 | 95 | 267 | 0.0 | 0.0 | 0.00 | 0.00 | 0.00 | 35 | 1016.2 |
| 20260902195002 | 95 | 232 | 0.0 | 0.9 | 0.00 | 0.00 | 0.00 | 35 | 1016.2 |
| 20260902194501 | 94 | 171 | 0.0 | 0.9 | 0.00 | 0.00 | 0.00 | 36 | 1016.2 |
| 20260902194002 | 95 | 248 | 0.0 | 0.0 | 0.00 | 0.00 | 0.00 | 36 | 1016.3 |
| 20260902193603 | 95 | 240 | 0.0 | 0.0 | 0.00 | 0.00 | 0.00 | 34 | 1016.2 |
| 20260902193101 | 96 | 278 | 0.0 | 0.0 | 0.00 | 0.00 | 0.00 | 34 | 1016.3 |
| 20260902192559 | 95 | 330 | 0.0 | 0.0 | 0.00 | 0.00 | 0.00 | 35 | 1016.3 |
| 20260902192059 | 94 | 260 | 0.0 | 0.0 | 0.00 | 0.00 | 0.00 | 36 | 1016.3 |
| 20260902191605 | 94 | 302 | 0.0 | 0.0 | 0.00 | 0.00 | 0.00 | 35 | 1016.5 |
| 20260902191058 | 94 | 294 | 0.0 | 0.0 | 0.00 | 0.00 | 0.00 | 34 | 1016.6 |
| 20260902190601 | 95 | 290 | 0.0 | 0.0 | 0.00 | 0.00 | 0.00 | 33 | 1016.6 |
| 20260902190059 | 95 | 199 | 0.0 | 0.0 | 0.00 | 0.00 | 0.00 | 35 | 1016.6 |
| 20260902185558 | 95 | 180 | 0.0 | 0.0 | 0.00 | 0.00 | 0.00 | 36 | 1016.6 |
| 20260902185100 | 95 | 188 | 0.0 | 0.0 | 0.00 | 0.00 | 0.00 | 35 | 1016.7 |
| 20260902184558 | 95 | 188 | 0.0 | 0.0 | 0.00 | 0.00 | 0.00 | 37 | 1016.8 |
| 20260902184057 | 95 | 225 | 0.0 | 0.0 | 0.00 | 0.00 | 0.00 | 36 | 1016.8 |
| 20260902183556 | 95 | 176 | 0.0 | 0.9 | 0.00 | 0.00 | 0.00 | 37 | 1016.8 |
| 20260902183135 | 94 | 171 | 0.0 | 0.9 | 0.00 | 0.00 | 0.00 | 38 | 1016.8 |
| 20260902182556 | 94 | 217 | 0.0 | 0.0 | 0.00 | 0.00 | 0.00 | 39 | 1016.8 |
| 20260902182053 | 94 | 239 | 0.0 | 0.0 | 0.00 | 0.00 | 0.00 | 36 | 1016.8 |
| 20260902181559 | 94 | 242 | 0.0 | 2.6 | 0.00 | 0.00 | 0.00 | 39 | 1016.8 |
| 20260902181054 | 93 | 253 | 0.0 | 2.6 | 0.00 | 0.00 | 0.00 | 38 | 1016.8 |
| 20260902180553 | 93 | 277 | 0.0 | 0.9 | 0.00 | 0.00 | 0.00 | 39 | 1016.9 |
| 20260902180053 | 94 | 265 | 0.0 | 0.9 | 0.00 | 0.00 | 0.00 | 40 | 1017.0 |
| 20260902175554 | 94 | 275 | 0.0 | 0.0 | 0.00 | 0.00 | 0.00 | 38 | 1017.0 |
| 20260902175055 | 94 | 198 | 0.0 | 0.9 | 0.00 | 0.00 | 0.00 | 37 | 1017.0 |
| 20260902174554 | 94 | 232 | 0.0 | 0.9 | 0.00 | 0.00 | 0.00 | 40 | 1017.1 |
| 20260902174052 | 93 | 290 | 0.0 | 0.9 | 0.00 | 0.00 | 0.00 | 39 | 1017.2 |
| 20260902173553 | 93 | 201 | 0.0 | 0.9 | 0.00 | 0.00 | 0.00 | 39 | 1017.2 |
| 20260902173056 | 92 | 355 | 0.0 | 0.9 | 0.00 | 0.00 | 0.00 | 41 | 1017.3 |
| 20260902172553 | 93 | 278 | 0.0 | 0.9 | 0.00 | 0.00 | 0.00 | 38 | 1017.4 |
| 20260902172051 | 93 | 284 | 0.0 | 0.0 | 0.00 | 0.00 | 0.00 | 39 | 1017.4 |
| 20260902171605 | 93 | 286 | 0.0 | 0.0 | 0.00 | 0.00 | 0.00 | 39 | 1017.5 |
| 20260902171053 | 93 | 292 | 0.0 | 0.0 | 0.00 | 0.00 | 0.00 | 40 | 1017.6 |
| 20260902170549 | 92 | 221 | 0.0 | 0.0 | 0.00 | 0.00 | 0.00 | 41 | 1017.6 |
| 20260902170049 | 92 | 302 | 0.0 | 0.0 | 0.00 | 0.00 | 0.00 | 42 | 1017.7 |
| 20260902165548 | 92 | 269 | 0.0 | 0.0 | 0.00 | 0.00 | 0.00 | 43 | 1017.7 |
| 20260902165048 | 92 | 271 | 0.0 | 0.0 | 0.00 | 0.00 | 0.00 | 42 | 1017.7 |
| 20260902164600 | 92 | 218 | 0.0 | 0.0 | 0.00 | 0.00 | 0.00 | 42 | 1017.8 |
| 20260902164046 | 92 | 231 | 0.0 | 0.0 | 0.00 | 0.00 | 0.00 | 43 | 1017.8 |
| 20260902163547 | 91 | 217 | 0.0 | 0.0 | 0.00 | 0.00 | 0.00 | 43 | 1017.9 |
| 20260902163046 | 91 | 213 | 0.0 | 0.0 | 0.00 | 0.00 | 0.00 | 44 | 1017.9 |
| 20260902162545 | 92 | 200 | 0.0 | 0.0 | 0.00 | 0.00 | 0.00 | 44 | 1017.9 |
| 20260902162046 | 92 | 232 | 0.0 | 0.9 | 0.00 | 0.00 | 0.00 | 43 | 1018.0 |
| 20260902161546 | 91 | 210 | 0.0 | 0.9 | 0.00 | 0.00 | 0.00 | 44 | 1018.1 |
| 20260902161044 | 90 | 288 | 0.0 | 0.0 | 0.00 | 0.00 | 0.00 | 45 | 1018.1 |
| 20260902160542 | 90 | 293 | 0.0 | 0.0 | 0.00 | 0.00 | 0.00 | 46 | 1018.1 |
| 20260902160047 | 90 | 275 | 0.0 | 0.0 | 0.00 | 0.00 | 0.00 | 44 | 1018.2 |
| 20260902155542 | 90 | 209 | 0.0 | 0.0 | 0.00 | 0.00 | 0.00 | 46 | 1018.1 |
| 20260902155041 | 90 | 227 | 0.0 | 0.0 | 0.00 | 0.00 | 0.00 | 47 | 1018.2 |
| 20260902154551 | 90 | 201 | 0.0 | 0.0 | 0.00 | 0.00 | 0.00 | 47 | 1018.1 |
| 20260902154039 | 89 | 221 | 0.0 | 0.0 | 0.00 | 0.00 | 0.00 | 47 | 1018.1 |
| 20260902153539 | 89 | 207 | 0.0 | 0.0 | 0.00 | 0.00 | 0.00 | 46 | 1018.2 |
| 20260902153038 | 89 | 265 | 0.0 | 0.0 | 0.00 | 0.00 | 0.00 | 46 | 1018.2 |
| 20260902152537 | 89 | 218 | 0.0 | 1.7 | 0.00 | 0.00 | 0.00 | 46 | 1018.3 |
| 20260902152037 | 89 | 248 | 0.0 | 1.7 | 0.00 | 0.00 | 0.00 | 47 | 1018.3 |
| 20260902151539 | 88 | 305 | 0.0 | 0.0 | 0.00 | 0.00 | 0.00 | 47 | 1018.3 |
| 20260902151036 | 89 | 281 | 0.0 | 0.0 | 0.00 | 0.00 | 0.00 | 47 | 1018.3 |
| 20260902150535 | 88 | 286 | 0.0 | 0.9 | 0.00 | 0.00 | 0.00 | 48 | 1018.3 |
| 20260902150034 | 88 | 205 | 0.0 | 0.9 | 0.00 | 0.00 | 0.00 | 48 | 1018.4 |
| 20260902145534 | 88 | 209 | 0.0 | 0.0 | 0.00 | 0.00 | 0.00 | 49 | 1018.4 |
| 20260902145033 | 88 | 258 | 0.0 | 0.9 | 0.00 | 0.00 | 0.00 | 50 | 1018.4 |
| 20260902144533 | 87 | 238 | 0.0 | 0.9 | 0.00 | 0.00 | 0.00 | 50 | 1018.2 |
| 20260902144033 | 88 | 240 | 0.0 | 0.0 | 0.00 | 0.00 | 0.00 | 50 | 1018.2 |
| 20260902143530 | 87 | 255 | 0.0 | 0.0 | 0.00 | 0.00 | 0.00 | 50 | 1018.3 |
| 20260902143030 | 87 | 255 | 0.0 | 0.0 | 0.00 | 0.00 | 0.00 | 53 | 1018.3 |
| 20260902142529 | 86 | 243 | 0.0 | 0.0 | 0.00 | 0.00 | 0.00 | 52 | 1018.3 |
| 20260902142028 | 86 | 273 | 0.0 | 0.0 | 0.00 | 0.00 | 0.00 | 53 | 1018.3 |
| 20260902141534 | 86 | 254 | 0.0 | 0.0 | 0.00 | 0.00 | 0.00 | 53 | 1018.3 |
| 20260902141026 | 86 | 221 | 0.0 | 0.0 | 0.00 | 0.00 | 0.00 | 54 | 1018.2 |
| 20260902140525 | 85 | 227 | 0.0 | 0.0 | 0.00 | 0.00 | 0.00 | 54 | 1018.2 |
| 20260902140024 | 85 | 217 | 0.0 | 0.0 | 0.00 | 0.00 | 0.00 | 55 | 1018.2 |
| 20260902135523 | 85 | 221 | 0.0 | 0.0 | 0.00 | 0.00 | 0.00 | 56 | 1018.3 |
| 20260902135022 | 84 | 240 | 0.0 | 0.0 | 0.00 | 0.00 | 0.00 | 56 | 1018.3 |
| 20260902134522 | 84 | 209 | 0.0 | 0.0 | 0.00 | 0.00 | 0.00 | 58 | 1018.3 |
| 20260902134019 | 83 | 211 | 0.0 | 0.0 | 0.00 | 0.00 | 0.00 | 58 | 1018.4 |
| 20260902133520 | 82 | 211 | 0.0 | 0.0 | 0.00 | 0.00 | 0.00 | 59 | 1018.4 |
| 20260902133017 | 81 | 208 | 0.0 | 0.0 | 0.00 | 0.00 | 0.00 | 58 | 1018.4 |
| 20260902132516 | 81 | 183 | 0.0 | 0.0 | 0.00 | 0.00 | 0.00 | 60 | 1018.4 |
| 20260902132013 | 80 | 182 | 0.0 | 0.0 | 0.00 | 0.00 | 0.00 | 60 | 1018.4 |
| 20260902131511 | 79 | 183 | 0.0 | 0.0 | 0.00 | 0.00 | 0.00 | 61 | 1018.4 |
| 20260902131010 | 78 | 183 | 0.0 | 0.0 | 0.00 | 0.00 | 0.00 | 62 | 1018.4 |
| 20260902130510 | 77 | 183 | 0.0 | 0.0 | 0.00 | 0.00 | 0.00 | 63 | 1018.4 |
| 20260902130024 | 77 | 183 | 0.0 | 0.0 | 0.00 | 0.00 | 0.00 | 65 | 1018.3 |
| 20260902125507 | 76 | 182 | 0.0 | 0.0 | 0.00 | 0.00 | 0.00 | 67 | 1018.3 |
| 20260902125006 | 75 | 182 | 0.0 | 0.0 | 0.00 | 0.00 | 0.00 | 69 | 1018.3 |
| 20260902124506 | 74 | 187 | 0.0 | 0.9 | 0.00 | 0.00 | 0.00 | 70 | 1018.2 |
| 20260902124005 | 74 | 187 | 0.0 | 0.9 | 0.00 | 0.00 | 0.00 | 71 | 1018.2 |
| 20260902123504 | 73 | 190 | 0.0 | 0.0 | 0.00 | 0.00 | 0.00 | 71 | 1018.2 |
| 20260902123015 | 73 | 190 | 0.0 | 0.0 | 0.00 | 0.00 | 0.00 | 71 | 1018.2 |
| 20260902122504 | 72 | 190 | 0.0 | 0.0 | 0.00 | 0.00 | 0.00 | 71 | 1018.1 |
| 20260902122005 | 72 | 190 | 0.0 | 0.0 | 0.00 | 0.00 | 0.00 | 72 | 1018.1 |
| 20260902121502 | 72 | 190 | 0.0 | 0.0 | 0.00 | 0.00 | 0.00 | 71 | 1018.0 |
| 20260902121002 | 71 | 190 | 0.0 | 0.0 | 0.00 | 0.00 | 0.00 | 71 | 1017.9 |
| 20260902120502 | 71 | 190 | 0.0 | 0.0 | 0.00 | 0.00 | 0.00 | 71 | 1018.0 |
| 20260902120001 | 71 | 190 | 0.0 | 0.0 | 0.00 | 0.00 | 0.00 | 71 | 1017.9 |
| 20260902115604 | 71 | 190 | 0.0 | 0.0 | 0.00 | 0.00 | 0.00 | 71 | 1017.8 |
| 20260902115100 | 70 | 190 | 0.0 | 0.0 | 0.00 | 0.00 | 0.00 | 70 | 1017.8 |
| 20260902114618 | 70 | 190 | 0.0 | 0.0 | 0.00 | 0.00 | 0.00 | 70 | 1017.7 |
| 20260902114100 | 70 | 190 | 0.0 | 0.0 | 0.00 | 0.00 | 0.00 | 69 | 1017.6 |
| 20260902113557 | 70 | 190 | 0.0 | 0.0 | 0.00 | 0.00 | 0.00 | 69 | 1017.6 |
| 20260902113057 | 70 | 190 | 0.0 | 0.0 | 0.00 | 0.00 | 0.00 | 69 | 1017.5 |
| 20260902112557 | 70 | 190 | 0.0 | 0.0 | 0.00 | 0.00 | 0.00 | 69 | 1017.5 |
| 20260902112056 | 70 | 190 | 0.0 | 0.0 | 0.00 | 0.00 | 0.00 | 69 | 1017.5 |
| 20260902111554 | 70 | 190 | 0.0 | 0.0 | 0.00 | 0.00 | 0.00 | 69 | 1017.5 |
| 20260902111054 | 71 | 190 | 0.0 | 0.0 | 0.00 | 0.00 | 0.00 | 69 | 1017.5 |
| 20260902110554 | 71 | 190 | 0.0 | 0.0 | 0.00 | 0.00 | 0.00 | 69 | 1017.5 |
| 20260902105553 | 71 | 190 | 0.0 | 0.0 | 0.00 | 0.00 | 0.00 | 68 | 1017.4 |
| 20260902105053 | 71 | 190 | 0.0 | 0.0 | 0.00 | 0.00 | 0.00 | 68 | 1017.4 |
| 20260902104557 | 71 | 190 | 0.0 | 0.0 | 0.00 | 0.00 | 0.00 | 68 | 1017.4 |
| 20260902104052 | 71 | 190 | 0.0 | 0.0 | 0.00 | 0.00 | 0.00 | 68 | 1017.3 |
| 20260902103551 | 71 | 190 | 0.0 | 0.0 | 0.00 | 0.00 | 0.00 | 68 | 1017.2 |
| 20260902103101 | 71 | 190 | 0.0 | 0.0 | 0.00 | 0.00 | 0.00 | 68 | 1017.1 |
| 20260902102551 | 71 | 190 | 0.0 | 0.0 | 0.00 | 0.00 | 0.00 | 68 | 1017.2 |
| 20260902102050 | 71 | 190 | 0.0 | 0.0 | 0.00 | 0.00 | 0.00 | 68 | 1017.0 |
| 20260902101550 | 71 | 190 | 0.0 | 0.0 | 0.00 | 0.00 | 0.00 | 68 | 1016.9 |
| 20260902101050 | 71 | 190 | 0.0 | 0.0 | 0.00 | 0.00 | 0.00 | 67 | 1017.0 |
| 20260902100548 | 71 | 190 | 0.0 | 0.0 | 0.00 | 0.00 | 0.00 | 67 | 1017.0 |
| 20260902100049 | 71 | 190 | 0.0 | 0.0 | 0.00 | 0.00 | 0.00 | 67 | 1017.0 |
| 20260902095547 | 71 | 190 | 0.0 | 0.0 | 0.00 | 0.00 | 0.00 | 67 | 1016.9 |
| 20260902095046 | 71 | 190 | 0.0 | 0.0 | 0.00 | 0.00 | 0.00 | 67 | 1016.8 |
| 20260902094547 | 71 | 190 | 0.0 | 0.0 | 0.00 | 0.00 | 0.00 | 67 | 1016.8 |
| 20260902094046 | 71 | 190 | 0.0 | 0.0 | 0.00 | 0.00 | 0.00 | 67 | 1016.6 |
| 20260902093545 | 71 | 190 | 0.0 | 0.0 | 0.00 | 0.00 | 0.00 | 67 | 1016.7 |
| 20260902093045 | 72 | 190 | 0.0 | 0.0 | 0.00 | 0.00 | 0.00 | 67 | 1016.7 |
| 20260902092544 | 72 | 190 | 0.0 | 0.0 | 0.00 | 0.00 | 0.00 | 66 | 1016.6 |
| 20260902092044 | 72 | 190 | 0.0 | 0.0 | 0.00 | 0.00 | 0.00 | 66 | 1016.6 |
| 20260902091543 | 72 | 190 | 0.0 | 0.0 | 0.00 | 0.00 | 0.00 | 66 | 1016.7 |
| 20260902091042 | 72 | 190 | 0.0 | 0.0 | 0.00 | 0.00 | 0.00 | 66 | 1016.6 |
| 20260902090542 | 72 | 190 | 0.0 | 0.0 | 0.00 | 0.00 | 0.00 | 66 | 1016.6 |
| 20260902090042 | 72 | 190 | 0.0 | 0.0 | 0.00 | 0.00 | 0.00 | 66 | 1016.5 |
| 20260902085543 | 72 | 190 | 0.0 | 0.0 | 0.00 | 0.00 | 0.00 | 66 | 1016.5 |
| 20260902085042 | 72 | 190 | 0.0 | 0.0 | 0.00 | 0.00 | 0.00 | 66 | 1016.6 |
| 20260902084541 | 72 | 190 | 0.0 | 0.0 | 0.00 | 0.00 | 0.00 | 66 | 1016.5 |
| 20260902084042 | 72 | 190 | 0.0 | 0.0 | 0.00 | 0.00 | 0.00 | 66 | 1016.4 |
| 20260902083541 | 72 | 190 | 0.0 | 0.0 | 0.00 | 0.00 | 0.00 | 66 | 1016.5 |
| 20260902083043 | 72 | 190 | 0.0 | 0.0 | 0.00 | 0.00 | 0.00 | 66 | 1016.5 |
| 20260902082541 | 72 | 190 | 0.0 | 0.0 | 0.00 | 0.00 | 0.00 | 66 | 1016.5 |
| 20260902082041 | 72 | 190 | 0.0 | 0.0 | 0.00 | 0.00 | 0.00 | 66 | 1016.4 |
| 20260902081545 | 72 | 190 | 0.0 | 0.0 | 0.00 | 0.00 | 0.00 | 66 | 1016.4 |
| 20260902081039 | 72 | 190 | 0.0 | 0.0 | 0.00 | 0.00 | 0.00 | 65 | 1016.4 |
| 20260902080539 | 72 | 190 | 0.0 | 0.0 | 0.00 | 0.00 | 0.00 | 65 | 1016.4 |
| 20260902080048 | 72 | 190 | 0.0 | 0.0 | 0.00 | 0.00 | 0.00 | 65 | 1016.4 |
| 20260902075537 | 73 | 190 | 0.0 | 0.0 | 0.00 | 0.00 | 0.00 | 65 | 1016.4 |
| 20260902075036 | 73 | 190 | 0.0 | 0.0 | 0.00 | 0.00 | 0.00 | 65 | 1016.3 |
| 20260902074537 | 73 | 190 | 0.0 | 0.0 | 0.00 | 0.00 | 0.00 | 65 | 1016.3 |
| 20260902074036 | 73 | 190 | 0.0 | 0.0 | 0.00 | 0.00 | 0.00 | 64 | 1016.3 |
| 20260902073535 | 73 | 190 | 0.0 | 0.0 | 0.00 | 0.00 | 0.00 | 64 | 1016.3 |
| 20260902073034 | 73 | 190 | 0.0 | 0.0 | 0.00 | 0.00 | 0.00 | 64 | 1016.3 |
| 20260902072536 | 74 | 190 | 0.0 | 0.0 | 0.00 | 0.00 | 0.00 | 64 | 1016.2 |
| 20260902072033 | 74 | 190 | 0.0 | 0.0 | 0.00 | 0.00 | 0.00 | 64 | 1016.2 |
| 20260902071539 | 74 | 190 | 0.0 | 0.0 | 0.00 | 0.00 | 0.00 | 64 | 1016.2 |
| 20260902071033 | 74 | 190 | 0.0 | 0.0 | 0.00 | 0.00 | 0.00 | 64 | 1016.3 |
| 20260902070533 | 74 | 190 | 0.0 | 0.0 | 0.00 | 0.00 | 0.00 | 64 | 1016.3 |
| 20260902070033 | 74 | 194 | 0.0 | 0.0 | 0.00 | 0.00 | 0.00 | 65 | 1016.3 |
| 20260902065533 | 74 | 194 | 0.0 | 0.0 | 0.00 | 0.00 | 0.00 | 65 | 1016.3 |
| 20260902065033 | 74 | 194 | 0.0 | 0.0 | 0.00 | 0.00 | 0.00 | 65 | 1016.3 |
| 20260902064532 | 74 | 194 | 0.0 | 0.0 | 0.00 | 0.00 | 0.00 | 65 | 1016.3 |
| 20260902064032 | 74 | 194 | 0.0 | 0.0 | 0.00 | 0.00 | 0.00 | 64 | 1016.2 |
| 20260902063536 | 74 | 194 | 0.0 | 0.0 | 0.00 | 0.00 | 0.00 | 64 | 1016.2 |
| 20260902063032 | 74 | 194 | 0.0 | 0.0 | 0.00 | 0.00 | 0.00 | 64 | 1016.2 |
| 20260902062532 | 74 | 194 | 0.0 | 0.0 | 0.00 | 0.00 | 0.00 | 64 | 1016.3 |
| 20260902062029 | 74 | 194 | 0.0 | 0.0 | 0.00 | 0.00 | 0.00 | 64 | 1016.2 |
| 20260902061529 | 75 | 194 | 0.0 | 0.0 | 0.00 | 0.00 | 0.00 | 64 | 1016.2 |
| 20260902061033 | 75 | 194 | 0.0 | 0.0 | 0.00 | 0.00 | 0.00 | 64 | 1016.2 |
| 20260902060530 | 75 | 194 | 0.0 | 0.0 | 0.00 | 0.00 | 0.00 | 64 | 1016.2 |
| 20260902060027 | 75 | 194 | 0.0 | 0.0 | 0.00 | 0.00 | 0.00 | 64 | 1016.3 |
| 20260902055528 | 75 | 194 | 0.0 | 0.0 | 0.00 | 0.00 | 0.00 | 64 | 1016.3 |
| 20260902055028 | 75 | 194 | 0.0 | 0.0 | 0.00 | 0.00 | 0.00 | 64 | 1016.3 |
| 20260902054531 | 75 | 194 | 0.0 | 0.0 | 0.00 | 0.00 | 0.00 | 64 | 1016.4 |
| 20260902054028 | 75 | 194 | 0.0 | 0.0 | 0.00 | 0.00 | 0.00 | 64 | 1016.4 |
| 20260902053528 | 75 | 194 | 0.0 | 0.0 | 0.00 | 0.00 | 0.00 | 64 | 1016.4 |
| 20260902053027 | 75 | 194 | 0.0 | 0.0 | 0.00 | 0.00 | 0.00 | 64 | 1016.3 |
| 20260902052530 | 75 | 194 | 0.0 | 0.0 | 0.00 | 0.00 | 0.00 | 64 | 1016.3 |
| 20260902052025 | 75 | 194 | 0.0 | 0.0 | 0.00 | 0.00 | 0.00 | 64 | 1016.3 |
| 20260902051527 | 75 | 196 | 0.0 | 0.0 | 0.00 | 0.00 | 0.00 | 64 | 1016.3 |
| 20260902051025 | 75 | 196 | 0.0 | 0.0 | 0.00 | 0.00 | 0.00 | 64 | 1016.2 |
| 20260902050526 | 75 | 196 | 0.0 | 0.0 | 0.00 | 0.00 | 0.00 | 64 | 1016.2 |
| 20260902050025 | 75 | 196 | 0.0 | 0.0 | 0.00 | 0.00 | 0.00 | 64 | 1016.3 |
| 20260902045524 | 76 | 199 | 0.0 | 0.0 | 0.00 | 0.00 | 0.00 | 64 | 1016.3 |
| 20260902045023 | 75 | 201 | 0.0 | 0.9 | 0.00 | 0.00 | 0.00 | 64 | 1016.3 |
| 20260902044523 | 76 | 201 | 0.0 | 0.9 | 0.00 | 0.00 | 0.00 | 64 | 1016.3 |
| 20260902044024 | 76 | 201 | 0.0 | 0.0 | 0.00 | 0.00 | 0.00 | 64 | 1016.3 |
| 20260902043523 | 76 | 201 | 0.0 | 0.0 | 0.00 | 0.00 | 0.00 | 64 | 1016.2 |
| 20260902043023 | 76 | 207 | 0.0 | 0.0 | 0.00 | 0.00 | 0.00 | 64 | 1016.3 |
| 20260902042522 | 76 | 207 | 0.0 | 0.0 | 0.00 | 0.00 | 0.00 | 64 | 1016.3 |
| 20260902042024 | 76 | 207 | 0.0 | 0.0 | 0.00 | 0.00 | 0.00 | 64 | 1016.3 |
| 20260902041521 | 76 | 207 | 0.0 | 0.0 | 0.00 | 0.00 | 0.00 | 63 | 1016.3 |
| 20260902041020 | 76 | 208 | 0.0 | 0.0 | 0.00 | 0.00 | 0.00 | 63 | 1016.3 |
| 20260902040520 | 76 | 209 | 0.0 | 0.0 | 0.00 | 0.00 | 0.00 | 63 | 1016.3 |
| 20260902040021 | 76 | 209 | 0.0 | 0.0 | 0.00 | 0.00 | 0.00 | 63 | 1016.2 |
| 20260902035518 | 76 | 209 | 0.0 | 0.0 | 0.00 | 0.00 | 0.00 | 63 | 1016.2 |
| 20260902035018 | 76 | 209 | 0.0 | 0.0 | 0.00 | 0.00 | 0.00 | 62 | 1016.3 |
| 20260902034519 | 76 | 211 | 0.0 | 0.0 | 0.00 | 0.00 | 0.00 | 62 | 1016.3 |
| 20260902034018 | 77 | 211 | 0.0 | 0.0 | 0.00 | 0.00 | 0.00 | 62 | 1016.3 |
| 20260902033518 | 77 | 211 | 0.0 | 0.0 | 0.00 | 0.00 | 0.00 | 62 | 1016.3 |
| 20260902033018 | 77 | 211 | 0.0 | 0.0 | 0.00 | 0.00 | 0.00 | 62 | 1016.3 |
| 20260902032520 | 77 | 213 | 0.0 | 0.0 | 0.00 | 0.00 | 0.00 | 63 | 1016.3 |
| 20260902032020 | 76 | 213 | 0.0 | 0.0 | 0.00 | 0.00 | 0.00 | 63 | 1016.4 |
| 20260902031517 | 76 | 213 | 0.0 | 0.0 | 0.00 | 0.00 | 0.00 | 63 | 1016.4 |
| 20260902031017 | 76 | 213 | 0.0 | 0.0 | 0.00 | 0.00 | 0.00 | 63 | 1016.4 |
| 20260902030517 | 76 | 213 | 0.0 | 0.0 | 0.00 | 0.00 | 0.00 | 63 | 1016.4 |
| 20260902030019 | 76 | 221 | 0.0 | 0.0 | 0.00 | 0.00 | 0.00 | 63 | 1016.4 |
| 20260902025519 | 76 | 223 | 0.0 | 0.0 | 0.00 | 0.00 | 0.00 | 63 | 1016.5 |
| 20260902025017 | 77 | 223 | 0.0 | 0.0 | 0.00 | 0.00 | 0.00 | 63 | 1016.5 |
| 20260902024518 | 77 | 223 | 0.0 | 0.0 | 0.00 | 0.00 | 0.00 | 62 | 1016.5 |
| 20260902024016 | 77 | 223 | 0.0 | 0.0 | 0.00 | 0.00 | 0.00 | 62 | 1016.4 |
| 20260902023516 | 77 | 223 | 0.0 | 0.0 | 0.00 | 0.00 | 0.00 | 63 | 1016.4 |
| 20260902023034 | 77 | 223 | 0.0 | 0.0 | 0.00 | 0.00 | 0.00 | 62 | 1016.4 |
| 20260902022516 | 78 | 248 | 0.0 | 0.0 | 0.00 | 0.00 | 0.00 | 62 | 1016.4 |
| 20260902022019 | 78 | 248 | 0.0 | 0.0 | 0.00 | 0.00 | 0.00 | 62 | 1016.3 |
| 20260902021527 | 78 | 248 | 0.0 | 0.0 | 0.00 | 0.00 | 0.00 | 62 | 1016.3 |
| 20260902021019 | 78 | 248 | 0.0 | 0.0 | 0.00 | 0.00 | 0.00 | 62 | 1016.3 |
| 20260902020514 | 78 | 248 | 0.0 | 0.0 | 0.00 | 0.00 | 0.00 | 62 | 1016.3 |
| 20260902020016 | 78 | 248 | 0.0 | 0.0 | 0.00 | 0.00 | 0.00 | 63 | 1016.2 |
| 20260902015516 | 78 | 248 | 0.0 | 0.0 | 0.00 | 0.00 | 0.00 | 63 | 1016.2 |
| 20260902015015 | 79 | 248 | 0.0 | 0.0 | 0.00 | 0.00 | 0.00 | 62 | 1016.2 |
| 20260902014515 | 79 | 248 | 0.0 | 0.0 | 0.00 | 0.00 | 0.00 | 62 | 1016.2 |
| 20260902014014 | 79 | 248 | 0.0 | 0.0 | 0.00 | 0.00 | 0.00 | 62 | 1016.3 |
| 20260902013514 | 79 | 248 | 0.0 | 0.0 | 0.00 | 0.00 | 0.00 | 62 | 1016.2 |
| 20260902013017 | 80 | 248 | 0.0 | 0.0 | 0.00 | 0.00 | 0.00 | 62 | 1016.2 |
| 20260902012513 | 80 | 248 | 0.0 | 0.0 | 0.00 | 0.00 | 0.00 | 61 | 1016.2 |
| 20260902012017 | 80 | 248 | 0.0 | 0.0 | 0.00 | 0.00 | 0.00 | 60 | 1016.0 |
| 20260902011513 | 80 | 248 | 0.0 | 0.0 | 0.00 | 0.00 | 0.00 | 60 | 1016.0 |
| 20260902011014 | 81 | 248 | 0.0 | 0.0 | 0.00 | 0.00 | 0.00 | 60 | 1015.8 |
| 20260902010513 | 81 | 248 | 0.0 | 0.0 | 0.00 | 0.00 | 0.00 | 59 | 1015.8 |
| 20260902010013 | 82 | 248 | 0.0 | 0.0 | 0.00 | 0.00 | 0.00 | 58 | 1015.7 |
| 20260902005515 | 83 | 249 | 0.0 | 0.0 | 0.00 | 0.00 | 0.00 | 57 | 1015.7 |
| 20260902005013 | 83 | 249 | 0.0 | 0.0 | 0.00 | 0.00 | 0.00 | 57 | 1015.6 |
| 20260902004515 | 83 | 249 | 0.0 | 0.0 | 0.00 | 0.00 | 0.00 | 57 | 1015.6 |
| 20260902004013 | 84 | 249 | 0.0 | 0.0 | 0.00 | 0.00 | 0.00 | 56 | 1015.6 |
| 20260902003512 | 84 | 249 | 0.0 | 0.0 | 0.00 | 0.00 | 0.00 | 56 | 1015.6 |
| 20260902003012 | 85 | 249 | 0.0 | 0.0 | 0.00 | 0.00 | 0.00 | 55 | 1015.6 |
| 20260902002512 | 86 | 249 | 0.0 | 0.0 | 0.00 | 0.00 | 0.00 | 54 | 1015.6 |
| 20260902002017 | 86 | 249 | 0.0 | 0.0 | 0.00 | 0.00 | 0.00 | 54 | 1015.6 |
| 20260902001511 | 87 | 249 | 0.0 | 0.0 | 0.00 | 0.00 | 0.00 | 51 | 1015.6 |
| 20260902001010 | 88 | 249 | 0.0 | 0.0 | 0.00 | 0.00 | 0.00 | 50 | 1015.7 |
| 20260902000510 | 88 | 249 | 0.0 | 0.0 | 0.00 | 0.00 | 0.00 | 50 | 1015.7 |
| 20260902000012 | 88 | 249 | 0.0 | 0.0 | 0.00 | 0.00 | 0.00 | 50 | 1015.8 |
| 20260901235510 | 88 | 249 | 0.0 | 0.0 | 0.00 | 0.00 | 0.00 | 51 | 1015.8 |
| 20260901235009 | 89 | 249 | 0.0 | 0.0 | 0.00 | 0.00 | 0.00 | 50 | 1015.8 |
| 20260901234510 | 89 | 249 | 0.0 | 0.0 | 0.00 | 0.00 | 0.00 | 50 | 1015.8 |